TimeCST,TemperatureF,Dew PointF,Humidity,Sea Level PressureIn,VisibilityMPH,Wind Direction,Wind SpeedMPH,Gust SpeedMPH,PrecipitationIn,Events,Conditions,WindDirDegrees,DateUTC
12:55 AM,41.9,26.6,55,30.16,10.0,SSW,9.2,-,N/A,,Clear,210,2013-01-19 06:55:00
1:55 AM,41.4,25.7,54,30.15,10.0,SSW,9.2,-,N/A,,Clear,210,2013-01-19 07:55:00
2:55 AM,41.4,25.0,52,30.14,10.0,SSW,9.2,-,N/A,,Clear,200,2013-01-19 08:55:00
3:55 AM,41.7,24.8,51,30.12,10.0,SSW,6.9,17.3,N/A,,Clear,210,2013-01-19 09:55:00
4:55 AM,41.7,25.2,52,30.11,10.0,SSW,8.1,17.3,N/A,,Clear,200,2013-01-19 10:55:00
5:55 AM,41.5,25.3,53,30.11,10.0,SSW,10.4,-,N/A,,Clear,210,2013-01-19 11:55:00
6:55 AM,41.4,26.1,55,30.10,10.0,SSW,11.5,17.3,N/A,,Clear,210,2013-01-19 12:55:00
7:55 AM,42.4,27.3,55,30.09,10.0,SW,10.4,18.4,N/A,,Clear,220,2013-01-19 13:55:00
8:55 AM,46.0,28.8,51,30.09,10.0,SW,9.2,23.0,N/A,,Clear,220,2013-01-19 14:55:00
9:55 AM,51.4,30.4,44,30.09,10.0,SW,11.5,24.2,N/A,,Clear,230,2013-01-19 15:55:00
10:55 AM,57.0,31.5,38,30.07,10.0,WSW,11.5,27.6,N/A,,Clear,240,2013-01-19 16:55:00
11:55 AM,61.3,31.5,32,30.03,10.0,SW,13.8,24.2,N/A,,Clear,230,2013-01-19 17:55:00
12:55 PM,62.6,32.0,32,30.01,10.0,SW,15.0,27.6,N/A,,Clear,230,2013-01-19 18:55:00
1:55 PM,64.0,31.5,30,29.99,10.0,WSW,17.3,29.9,N/A,,Clear,240,2013-01-19 19:55:00
2:55 PM,64.0,31.3,29,29.99,10.0,WSW,15.0,26.5,N/A,,Clear,250,2013-01-19 20:55:00
3:55 PM,63.7,31.1,29,30.00,10.0,WSW,10.4,21.9,N/A,,Clear,240,2013-01-19 21:55:00
4:55 PM,61.0,31.3,33,30.03,10.0,West,8.1,-,N/A,,Clear,260,2013-01-19 22:55:00
5:55 PM,57.6,33.1,40,30.06,10.0,West,5.8,-,N/A,,Clear,280,2013-01-19 23:55:00
6:55 PM,54.0,33.8,46,30.09,10.0,WNW,4.6,-,N/A,,Clear,290,2013-01-20 00:55:00
7:55 PM,51.4,35.1,54,30.12,10.0,West,5.8,-,N/A,,Clear,270,2013-01-20 01:55:00
8:55 PM,49.3,36.1,61,30.13,10.0,WSW,6.9,-,N/A,,Clear,250,2013-01-20 02:55:00
9:55 PM,48.6,36.7,64,30.14,10.0,West,8.1,-,N/A,,Clear,260,2013-01-20 03:55:00
10:55 PM,47.8,34.7,60,30.17,10.0,NW,8.1,-,N/A,,Clear,310,2013-01-20 04:55:00
11:55 PM,44.4,32.5,63,30.18,10.0,NW,10.4,-,N/A,,Clear,320,2013-01-20 05:55:00